Weather History for PAMR - August, 2013

Change the Weather History Date:

Sunday, August 4, 2013

  Actual Average Record
Temperature  
Mean Temperature 64 °F -  
Max Temperature 70 °F 66 °F 75 °F (1997)
Min Temperature 59 °F 51 °F 46 °F (2003)
Degree Days  
Heating Degree Days 1    
Growing Degree Days 14 (Base 50)    
Moisture  
Dew Point 50 °F    
Average Humidity 63    
Maximum Humidity 87    
Minimum Humidity 47    
Precipitation  
Precipitation 0.00 in - - ()
Sea Level Pressure  
Sea Level Pressure 29.93 in    
Wind  
Wind Speed 3 mph (NNW)    
Max Wind Speed 7 mph    
Max Gust Speed -    
Visibility 10 miles    
Events      
Averages and records for this station are not official NWS values.
T = Trace of Precipitation, MM = Missing Value Source: NWS Daily Summary

Daily Weather History Graph

Daily Weather History Graph

Search for Another Location

Airport or City:

Trip Planner

Search our weather history database for the weather conditions in past years. The results will help you decide how hot, cold, wet, or windy it might be!

Date:

Astronomy

Aug. 04, 2013 Rise Set
Actual Time 5:40 AM AKDT 10:28 PM AKDT
Civil Twilight 4:37 AM AKDT 11:30 PM AKDT
Nautical Twilight 2:37 AM AKDT 1:32 AM AKDT
Astronomical Twilight Sun does not rise Sun does not rise
Moon 3:45 AM AKDT (8/4) 8:54 PM AKDT (8/4)
Length of Visible Light 18h 52m
Length of Day
16h 48m
Waning Crescent, 4% of the Moon is Illuminated
Aug 4
Waning Crescent
Aug 6
New
Aug 14
First Quarter
Aug 20
Full
Aug 28
Last Quarter

Hourly Weather History & Observations

Time (AKDT) Temp. Dew Point Humidity Pressure Visibility Wind Dir Wind Speed Gust Speed Precip Events Conditions
12:53 AM 64.9 °F 44.1 °F 47% 29.88 in 10.0 mi South 4.6 mph - N/A   Overcast
1:53 AM 62.1 °F 48.9 °F 62% 29.90 in 10.0 mi Calm Calm - N/A   Overcast
2:53 AM 61.0 °F 51.1 °F 70% 29.90 in 10.0 mi Calm Calm - N/A   Overcast
3:53 AM 60.1 °F 51.1 °F 72% 29.90 in 10.0 mi NW 4.6 mph - N/A   Overcast
4:53 AM 59.0 °F 55.0 °F 87% 29.91 in 10.0 mi NW 6.9 mph - N/A   Overcast
5:53 AM 59.0 °F 54.0 °F 83% 29.91 in 10.0 mi North 4.6 mph - 0.00 in   Overcast
6:53 AM 59.0 °F 53.1 °F 81% 29.92 in 10.0 mi Calm Calm - N/A   Overcast
7:53 AM 60.1 °F 53.1 °F 78% 29.93 in 10.0 mi Calm Calm - N/A   Overcast
8:53 AM 61.0 °F 50.0 °F 67% 29.93 in 10.0 mi Calm Calm - N/A   Overcast
9:53 AM 62.1 °F 50.0 °F 65% 29.94 in 10.0 mi North 3.5 mph - N/A   Mostly Cloudy
10:53 AM 62.1 °F 48.9 °F 62% 29.95 in 10.0 mi NNE 4.6 mph - N/A   Mostly Cloudy
11:53 AM 64.0 °F 46.9 °F 54% 29.95 in 10.0 mi Calm Calm - N/A   Mostly Cloudy
12:53 PM 66.0 °F 48.0 °F 52% 29.94 in 10.0 mi NE 3.5 mph - N/A   Mostly Cloudy
1:53 PM 64.9 °F 48.9 °F 56% 29.95 in 10.0 mi NNE 5.8 mph - N/A   Overcast
2:53 PM 66.9 °F 52.0 °F 59% 29.95 in 10.0 mi NW 4.6 mph - N/A   Overcast
3:53 PM 69.1 °F 48.9 °F 49% 29.94 in 10.0 mi WNW 4.6 mph - N/A   Mostly Cloudy
4:53 PM 64.0 °F 53.1 °F 67% 29.95 in 10.0 mi Calm Calm - 0.00 in   Overcast
5:53 PM 66.9 °F 48.0 °F 51% 29.94 in 10.0 mi SSE 3.5 mph - 0.00 in   Overcast
6:53 PM 66.0 °F 46.9 °F 50% 29.94 in 10.0 mi South 4.6 mph - 0.00 in   Overcast
7:53 PM 66.0 °F 50.0 °F 56% 29.94 in 10.0 mi South 3.5 mph - N/A   Overcast
8:53 PM 66.0 °F 46.9 °F 50% 29.95 in 10.0 mi SE 4.6 mph - N/A   Overcast
9:53 PM 64.0 °F 46.0 °F 52% 29.95 in 10.0 mi SSE 3.5 mph - N/A   Overcast
10:53 PM 63.0 °F 48.0 °F 58% 29.96 in 10.0 mi Calm Calm - 0.00 in   Overcast
11:53 PM 60.1 °F 55.0 °F 83% 29.96 in 10.0 mi Calm Calm - N/A   Overcast